Location: Limerick
(52.6650°N, 8.6230°W)
Time: 05:46:28
(UTC+00:00)

ISS - Pass Details

Date: 06 December 2019
Orbit: 411 x 421 km, 51.6° (Epoch: 15 December)

Event Time Altitude Azimuth Distance (km) Brightness Sun altitude
Rises 17:20:38 0° 275° (W) 2,356 1.2 -8.5°
Reaches altitude 10° 17:22:44 10° 273° (W) 1,495 0.1 -8.8°
Maximum altitude 17:26:04 67° 190° (S) 456 -3.5 -9.3°
Drops below altitude 10° 17:29:24 10° 107° (ESE) 1,498 -1.4 -9.7°
Enters shadow 17:29:48 - 107° (ESE) 1,659 -1.2 -9.8°
